QPF
0.00 0.00 0.00 0.00 0.00 0.00 0.00 0.00 0.00 0.00 0.00 0.00 0.00 0.00 0.00 0.00 0.00 0.00 0.00 0.00 0.00 0.00 0.00 0.00 0.01 0.01 0.01 0.00 0.01 0.01 0.00 0.00 0.01 0.01 0.00 0.00 0.00 0.00 0.00 0.00 0.00 0.00 0.00 0.00 0.00 0.02 0.02 0.02 0.02
0.00 0.00 0.00 0.00 0.00 0.00 0.00 0.00 0.00 0.00 0.00 0.00 0.00 0.00 0.00 0.00 0.00 0.00 0.00 0.00 0.00 0.00 0.00 0.00 0.01 0.00 0.01 0.01 0.01 0.00 0.01 0.00 0.00 0.00 0.00 0.00 0.00 0.00 0.00 0.00 0.00 0.00 0.00 0.00 0.01 0.01 0.01 0.02 0.02
0.00 0.00 0.00 0.00 0.00 0.00 0.00 0.00 0.00 0.00 0.00 0.00 0.00 0.00 0.00 0.00 0.00 0.00 0.00 0.00 0.00 0.00 0.00 0.00 0.01 0.01 0.01 0.01 0.00 0.01 0.00 0.00 0.00 0.00 0.00 0.00 0.00 0.00 0.00 0.00 0.00 0.00 0.00 0.00 0.01 0.01 0.01 0.02 0.02
0.00 0.00 0.00 0.00 0.00 0.00 0.00 0.00 0.00 0.00 0.00 0.00 0.00 0.00 0.00 0.00 0.00 0.00 0.00 0.00 0.00 0.00 0.00 0.01 0.01 0.01 0.01 0.01 0.00 0.01 0.00 0.00 0.00 0.00 0.00 0.00 0.00 0.00 0.00 0.00 0.00 0.00 0.00 0.00 0.00 0.01 0.01 0.02 0.02
0.00 0.00 0.00 0.00 0.00 0.00 0.00 0.00 0.00 0.00 0.00 0.00 0.00 0.00 0.00 0.00 0.00 0.00 0.00 0.00 0.00 0.00 0.00 0.01 0.01 0.01 0.01 0.01 0.00 0.00 0.00 0.00 0.00 0.00 0.00 0.00 0.00 0.00 0.00 0.00 0.00 0.00 0.00 0.00 0.00 0.01 0.01 0.01 0.01
0.00 0.00 0.00 0.00 0.00 0.00 0.00 0.00 0.00 0.00 0.00 0.00 0.00 0.00 0.00 0.00 0.00 0.00 0.00 0.00 0.00 0.00 0.00 0.00 0.01 0.02 0.01 0.01 0.00 0.00 0.00 0.00 0.00 0.00 0.00 0.00 0.00 0.00 0.00 0.00 0.00 0.00 0.00 0.00 0.00 0.01 0.01 0.00 0.00
0.00 0.00 0.00 0.00 0.00 0.00 0.00 0.00 0.00 0.00 0.00 0.00 0.00 0.00 0.00 0.00 0.00 0.00 0.00 0.00 0.00 0.00 0.00 0.00 0.01 0.01 0.00 0.00 0.00 0.00 0.00 0.00 0.00 0.00 0.00 0.00 0.00 0.00 0.00 0.00 0.00 0.00 0.00 0.00 0.00 0.00 0.00 0.00 0.00
0.00 0.00 0.00 0.00 0.00 0.00 0.00 0.00 0.00 0.00 0.00 0.00 0.00 0.00 0.00 0.00 0.00 0.00 0.00 0.00 0.00 0.00 0.00 0.00 0.00 0.00 0.00 0.00 0.00 0.00 0.00 0.00 0.00 0.00 0.00 0.00 0.00 0.00 0.00 0.00 0.00 0.00 0.00 0.00 0.00 0.00 0.00 0.00 0.00
0.00 0.00 0.00 0.00 0.00 0.00 0.00 0.00 0.00 0.00 0.00 0.00 0.00 0.00 0.00 0.00 0.00 0.00 0.00 0.00 0.00 0.00 0.00 0.00 0.00 0.00 0.00 0.00 0.00 0.00 0.00 0.00 0.00 0.00 0.00 0.00 0.00 0.00 0.00 0.00 0.00 0.00 0.00 0.00 0.00 0.00 0.00 0.00 0.00
0.00 0.00 0.00 0.00 0.00 0.00 0.00 0.00 0.00 0.00 0.00 0.00 0.00 0.00 0.00 0.00 0.00 0.00 0.00 0.00 0.00 0.00 0.00 0.00 0.00 0.00 0.00 0.00 0.00 0.00 0.00 0.00 0.00 0.00 0.00 0.00 0.00 0.00 0.00 0.00 0.00 0.00 0.00 0.00 0.00 0.00 0.00 0.00 0.00
0.00 0.00 0.00 0.00 0.00 0.00 0.00 0.00 0.00 0.00 0.00 0.00 0.00 0.00 0.00 0.00 0.00 0.00 0.00 0.00 0.00 0.00 0.00 0.00 0.00 0.00 0.00 0.00 0.00 0.00 0.00 0.00 0.00 0.00 0.00 0.00 0.00 0.00 0.00 0.00 0.00 0.00 0.00 0.00 0.00 0.00 0.00 0.00 0.00
0.00 0.00 0.00 0.00 0.00 0.00 0.00 0.00 0.00 0.00 0.00 0.00 0.00 0.00 0.00 0.00 0.00 0.00 0.00 0.00 0.00 0.00 0.00 0.00 0.00 0.00 0.00 0.00 0.00 0.00 0.00 0.00 0.00 0.00 0.00 0.00 0.00 0.00 0.00 0.00 0.00 0.00 0.00 0.00 0.00 0.00 0.00 0.00 0.00
0.00 0.00 0.00 0.00 0.00 0.00 0.00 0.00 0.00 0.00 0.00 0.00 0.00 0.00 0.00 0.00 0.00 0.00 0.00 0.00 0.00 0.00 0.00 0.00 0.00 0.00 0.00 0.00 0.00 0.00 0.00 0.00 0.00 0.00 0.00 0.00 0.00 0.00 0.00 0.00 0.00 0.00 0.00 0.00 0.00 0.00 0.00 0.00 0.00
0.00 0.00 0.00 0.00 0.00 0.00 0.00 0.00 0.00 0.00 0.00 0.00 0.00 0.00 0.00 0.00 0.00 0.00 0.00 0.00 0.00 0.00 0.00 0.00 0.00 0.00 0.00 0.00 0.00 0.00 0.00 0.00 0.00 0.00 0.00 0.00 0.00 0.00 0.00 0.00 0.00 0.00 0.00 0.00 0.00 0.00 0.00 0.00 0.00
0.00 0.00 0.00 0.00 0.00 0.00 0.00 0.00 0.00 0.00 0.00 0.00 0.00 0.00 0.00 0.00 0.00 0.00 0.00 0.00 0.00 0.00 0.00 0.00 0.00 0.00 0.00 0.00 0.00 0.00 0.00 0.00 0.00 0.00 0.00 0.00 0.00 0.00 0.00 0.00 0.00 0.00 0.00 0.00 0.00 0.00 0.00 0.00 0.00
0.00 0.00 0.00 0.00 0.00 0.00 0.00 0.00 0.00 0.00 0.00 0.00 0.00 0.00 0.00 0.00 0.00 0.00 0.00 0.00 0.00 0.00 0.00 0.00 0.00 0.00 0.00 0.00 0.00 0.00 0.00 0.00 0.00 0.00 0.00 0.00 0.00 0.00 0.00 0.00 0.00 0.00 0.00 0.00 0.00 0.00 0.00 0.00 0.00
0.00 0.00 0.00 0.00 0.00 0.00 0.00 0.00 0.00 0.00 0.00 0.00 0.00 0.00 0.00 0.00 0.00 0.00 0.00 0.00 0.00 0.00 0.00 0.00 0.00 0.00 0.00 0.00 0.00 0.00 0.00 0.00 0.00 0.00 0.00 0.00 0.00 0.00 0.00 0.00 0.00 0.00 0.00 0.00 0.00 0.00 0.00 0.00 0.00
0.00 0.00 0.00 0.00 0.00 0.00 0.00 0.00 0.00 0.00 0.00 0.00 0.00 0.00 0.00 0.00 0.00 0.00 0.00 0.00 0.00 0.00 0.00 0.00 0.00 0.00 0.00 0.00 0.00 0.00 0.00 0.00 0.00 0.00 0.00 0.00 0.00 0.00 0.00 0.00 0.00 0.00 0.00 0.00 0.00 0.00 0.00 0.00 0.00
0.00 0.00 0.00 0.00 0.00 0.00 0.00 0.00 0.00 0.00 0.00 0.00 0.00 0.00 0.00 0.00 0.00 0.00 0.00 0.00 0.00 0.00 0.00 0.00 0.00 0.00 0.00 0.00 0.00 0.00 0.00 0.00 0.00 0.00 0.00 0.00 0.00 0.00 0.00 0.00 0.00 0.00 0.00 0.00 0.00 0.00 0.00 0.00 0.00
0.00 0.00 0.00 0.00 0.00 0.00 0.00 0.00 0.00 0.00 0.00 0.00 0.00 0.00 0.00 0.00 0.00 0.00 0.00 0.00 0.00 0.00 0.00 0.00 0.00 0.00 0.00 0.00 0.00 0.00 0.00 0.00 0.00 0.00 0.00 0.00 0.00 0.00 0.00 0.00 0.00 0.00 0.00 0.00 0.00 0.00 0.00 0.00 0.00
0.00 0.00 0.00 0.00 0.00 0.00 0.00 0.00 0.00 0.00 0.00 0.00 0.00 0.00 0.00 0.00 0.00 0.00 0.00 0.00 0.00 0.00 0.00 0.00 0.00 0.00 0.00 0.00 0.00 0.00 0.00 0.00 0.00 0.00 0.00 0.00 0.00 0.00 0.00 0.00 0.00 0.00 0.00 0.00 0.00 0.00 0.00 0.00 0.00
0.00 0.00 0.00 0.00 0.00 0.00 0.00 0.00 0.00 0.00 0.00 0.00 0.00 0.00 0.00 0.00 0.00 0.00 0.00 0.00 0.00 0.00 0.00 0.00 0.00 0.00 0.00 0.00 0.00 0.00 0.00 0.00 0.00 0.00 0.00 0.00 0.00 0.00 0.00 0.00 0.00 0.00 0.00 0.00 0.00 0.00 0.00 0.00 0.00
0.00 0.00 0.00 0.00 0.00 0.00 0.00 0.00 0.00 0.00 0.00 0.00 0.00 0.00 0.00 0.00 0.00 0.00 0.00 0.00 0.00 0.00 0.00 0.00 0.00 0.00 0.00 0.00 0.00 0.00 0.00 0.00 0.00 0.00 0.00 0.00 0.00 0.00 0.00 0.00 0.00 0.00 0.00 0.00 0.00 0.00 0.00 0.00 0.00
0.00 0.00 0.00 0.00 0.00 0.00 0.00 0.00 0.00 0.00 0.00 0.00 0.00 0.00 0.00 0.00 0.00 0.00 0.00 0.00 0.00 0.00 0.00 0.00 0.00 0.00 0.00 0.00 0.00 0.00 0.00 0.00 0.00 0.00 0.00 0.00 0.00 0.00 0.00 0.00 0.00 0.00 0.00 0.00 0.00 0.00 0.00 0.00 0.00
0.00 0.00 0.00 0.00 0.00 0.00 0.00 0.00 0.00 0.00 0.00 0.00 0.00 0.00 0.00 0.00 0.00 0.00 0.00 0.00 0.00 0.00 0.00 0.00 0.00 0.00 0.00 0.00 0.00 0.00 0.00 0.00 0.00 0.00 0.00 0.00 0.00 0.00 0.00 0.00 0.00 0.00 0.00 0.00 0.00 0.00 0.00 0.00 0.00
0.00 0.00 0.00 0.00 0.00 0.00 0.00 0.00 0.00 0.00 0.00 0.00 0.00 0.00 0.00 0.00 0.00 0.00 0.00 0.00 0.00 0.00 0.00 0.00 0.00 0.00 0.00 0.00 0.00 0.00 0.00 0.00 0.00 0.00 0.00 0.00 0.00 0.00 0.00 0.00 0.00 0.00 0.00 0.00 0.00 0.00 0.00 0.00 0.00
0.00 0.00 0.00 0.00 0.00 0.00 0.00 0.00 0.00 0.00 0.00 0.00 0.00 0.00 0.00 0.00 0.00 0.00 0.00 0.00 0.00 0.00 0.00 0.00 0.00 0.00 0.00 0.00 0.00 0.00 0.00 0.00 0.00 0.00 0.00 0.00 0.00 0.00 0.00 0.00 0.00 0.00 0.00 0.00 0.00 0.00 0.00 0.00 0.00
0.00 0.00 0.00 0.00 0.00 0.00 0.00 0.00 0.00 0.00 0.00 0.00 0.00 0.00 0.00 0.00 0.00 0.00 0.00 0.00 0.00 0.00 0.00 0.00 0.00 0.00 0.00 0.00 0.00 0.00 0.00 0.00 0.00 0.00 0.00 0.00 0.00 0.00 0.00 0.00 0.00 0.00 0.00 0.00 0.00 0.00 0.00 0.00 0.00
0.00 0.00 0.00 0.00 0.00 0.00 0.00 0.00 0.00 0.00 0.00 0.00 0.00 0.00 0.00 0.00 0.00 0.00 0.00 0.00 0.00 0.00 0.00 0.00 0.00 0.00 0.00 0.00 0.00 0.00 0.00 0.00 0.00 0.00 0.00 0.00 0.00 0.00 0.00 0.00 0.00 0.00 0.00 0.00 0.00 0.00 0.00 0.00 0.00
0.00 0.00 0.00 0.00 0.00 0.00 0.00 0.00 0.00 0.00 0.00 0.00 0.00 0.00 0.00 0.00 0.00 0.00 0.00 0.00 0.00 0.00 0.00 0.00 0.00 0.00 0.00 0.00 0.00 0.00 0.00 0.00 0.00 0.00 0.00 0.00 0.00 0.00 0.00 0.00 0.00 0.00 0.00 0.00 0.00 0.00 0.00 0.00 0.00
MSLP
1012.06 1012.07 1012.42 1012.89 1014.33 1014.66 1014.29 1014.00 1013.71 1013.79 1014.21 1014.62 1014.93 1015.61 1016.44 1017.48 1017.92 1019.33 1018.89 1018.80 1018.66 1018.82 1018.68 1018.96 1019.03 1019.29 1019.49 1019.46 1019.59 1019.68 1019.84 1020.01 1019.96 1019.89 1019.95 1019.97 1019.85 1019.76 1019.71 1019.64 1019.60 1019.59 1019.50 1019.39 1019.07 1018.80 1018.61 1018.50 1018.62
1012.18 1012.37 1012.83 1013.82 1014.69 1015.11 1014.49 1013.89 1013.78 1014.00 1014.73 1015.18 1015.66 1016.45 1017.13 1018.19 1018.44 1018.83 1019.11 1018.97 1018.77 1018.94 1018.97 1019.21 1019.39 1019.53 1019.73 1019.72 1019.84 1019.96 1020.21 1020.35 1020.43 1020.30 1020.29 1020.16 1020.14 1020.17 1020.14 1020.01 1019.92 1019.98 1019.95 1019.75 1019.42 1019.20 1018.97 1018.94 1018.96
1012.04 1012.37 1013.50 1014.23 1015.05 1014.88 1014.29 1013.62 1013.82 1014.29 1014.90 1015.26 1016.22 1017.06 1017.71 1018.56 1018.94 1018.86 1018.79 1019.01 1019.12 1019.07 1019.21 1019.51 1019.63 1019.78 1019.85 1020.04 1020.14 1020.41 1020.56 1020.75 1020.76 1020.76 1020.66 1020.59 1020.47 1020.56 1020.53 1020.41 1020.31 1020.43 1020.38 1020.13 1019.82 1019.58 1019.38 1019.37 1019.30
1012.33 1013.25 1014.47 1014.43 1014.74 1013.97 1013.68 1013.61 1013.75 1014.42 1014.86 1015.35 1016.17 1017.48 1018.20 1018.48 1018.81 1018.83 1018.88 1019.15 1019.46 1019.53 1019.66 1019.73 1019.87 1020.07 1020.21 1020.33 1020.62 1020.70 1020.83 1021.03 1021.05 1020.98 1020.99 1020.89 1020.97 1020.98 1020.94 1020.82 1020.77 1020.75 1020.68 1020.46 1020.20 1019.99 1019.87 1019.93 1019.90
1012.98 1013.95 1014.87 1015.05 1014.38 1013.75 1013.43 1013.56 1013.85 1014.34 1014.88 1015.58 1016.10 1017.58 1018.48 1018.70 1018.74 1018.92 1019.23 1019.29 1019.62 1019.83 1019.83 1019.94 1020.12 1020.34 1020.57 1020.73 1021.00 1021.11 1021.34 1021.37 1021.36 1021.42 1021.32 1021.33 1021.40 1021.34 1021.31 1021.24 1021.09 1021.01 1020.88 1020.72 1020.65 1020.49 1020.52 1020.52 1020.52
1013.70 1014.51 1015.29 1015.16 1014.30 1013.57 1013.37 1013.51 1014.06 1014.47 1015.11 1015.90 1016.59 1017.64 1018.72 1019.02 1019.06 1019.35 1019.37 1019.65 1019.63 1019.92 1020.01 1020.26 1020.43 1020.62 1020.92 1021.20 1021.48 1021.65 1021.85 1021.87 1021.83 1021.81 1021.82 1021.84 1021.76 1021.66 1021.61 1021.59 1021.42 1021.31 1021.20 1021.11 1021.16 1021.15 1021.23 1021.35 1021.48
1013.82 1014.84 1015.04 1014.74 1014.12 1013.51 1013.29 1013.48 1014.05 1014.64 1015.32 1015.99 1016.47 1017.90 1018.99 1019.33 1019.43 1019.46 1019.67 1019.79 1020.00 1020.15 1020.35 1020.70 1020.97 1021.11 1021.28 1021.68 1022.05 1022.22 1022.34 1022.41 1022.48 1022.48 1022.51 1022.40 1022.16 1022.01 1021.91 1021.85 1021.78 1021.68 1021.61 1021.66 1021.78 1021.88 1021.98 1022.03 1022.08
1013.88 1014.66 1014.97 1014.56 1014.10 1013.49 1013.23 1013.42 1013.89 1014.44 1015.45 1016.09 1016.58 1017.51 1018.52 1018.80 1019.46 1019.73 1020.12 1020.34 1020.58 1020.72 1020.88 1021.13 1021.54 1021.76 1021.99 1022.51 1022.66 1022.79 1022.86 1022.96 1023.12 1023.19 1023.36 1023.39 1023.17 1022.88 1022.49 1022.32 1022.18 1022.24 1022.28 1022.34 1022.46 1022.57 1022.61 1022.69 1022.71
1013.59 1014.58 1014.97 1014.15 1013.86 1013.14 1013.22 1013.53 1014.10 1014.61 1015.39 1016.23 1016.81 1017.22 1017.42 1018.21 1019.36 1020.00 1020.64 1021.06 1021.17 1021.44 1021.59 1021.67 1021.92 1022.23 1022.63 1023.16 1023.38 1023.45 1023.34 1023.54 1023.83 1023.93 1023.93 1023.94 1023.78 1023.53 1023.26 1022.73 1022.79 1022.88 1022.98 1023.18 1023.42 1023.59 1023.71 1023.69 1023.54
1013.78 1014.46 1013.99 1013.41 1013.20 1013.07 1013.13 1013.42 1014.07 1014.70 1015.54 1016.33 1017.05 1017.70 1017.86 1018.58 1019.35 1020.01 1020.68 1021.31 1021.68 1021.91 1022.15 1022.29 1022.52 1022.85 1023.21 1023.60 1023.98 1024.14 1024.27 1024.50 1024.60 1024.61 1024.57 1024.45 1024.26 1023.99 1023.97 1023.84 1023.71 1023.67 1023.73 1023.89 1024.05 1024.17 1024.22 1024.33 1024.55
1013.65 1013.81 1013.56 1013.30 1013.06 1013.11 1013.27 1013.60 1013.96 1014.63 1015.51 1015.64 1016.36 1017.74 1018.28 1018.87 1019.61 1020.15 1020.67 1021.08 1021.56 1022.03 1022.34 1022.68 1022.92 1023.27 1023.61 1024.09 1024.42 1024.63 1024.80 1024.92 1024.97 1024.92 1024.91 1024.85 1024.76 1024.72 1024.80 1024.85 1024.98 1025.03 1025.09 1025.33 1025.24 1025.19 1025.23 1025.28 1025.26
1013.35 1013.33 1013.40 1013.28 1013.32 1013.32 1013.56 1013.76 1014.18 1014.73 1014.95 1015.26 1015.89 1016.92 1017.91 1018.74 1019.44 1020.05 1020.73 1021.32 1021.77 1022.23 1022.51 1022.88 1023.17 1023.60 1023.99 1024.31 1024.72 1024.91 1025.02 1025.17 1025.21 1025.21 1025.17 1025.26 1025.41 1025.52 1025.59 1025.61 1025.73 1025.81 1025.93 1025.97 1025.99 1025.97 1025.96 1025.95 1026.01
1013.20 1013.25 1013.38 1013.50 1013.50 1013.58 1013.82 1014.11 1014.47 1014.75 1015.11 1015.68 1016.49 1017.50 1018.06 1018.80 1019.63 1020.26 1020.73 1021.35 1021.86 1022.34 1022.71 1023.07 1023.42 1023.84 1024.20 1024.49 1024.87 1025.07 1025.23 1025.33 1025.41 1025.43 1025.43 1025.57 1025.81 1026.02 1026.00 1026.13 1026.23 1026.37 1026.35 1026.43 1026.57 1026.56 1026.58 1026.67 1026.76
1013.07 1013.28 1013.51 1013.74 1013.85 1013.91 1014.12 1014.47 1014.74 1015.06 1015.57 1016.46 1017.13 1017.75 1018.34 1018.88 1019.44 1020.23 1020.85 1021.39 1021.81 1022.29 1022.74 1023.14 1023.57 1023.95 1024.34 1024.73 1024.95 1025.24 1025.36 1025.48 1025.57 1025.72 1025.77 1025.85 1026.02 1026.25 1026.39 1026.56 1026.77 1026.89 1026.86 1026.96 1027.02 1027.21 1027.27 1027.52 1027.53
1013.29 1013.74 1013.85 1013.90 1014.05 1014.23 1014.43 1014.89 1014.92 1015.29 1016.05 1017.07 1017.76 1018.13 1018.55 1019.09 1019.60 1019.67 1020.08 1020.83 1021.37 1021.99 1022.57 1023.05 1023.54 1024.09 1024.49 1024.81 1025.11 1025.37 1025.50 1025.65 1025.88 1025.99 1026.02 1026.09 1026.21 1026.44 1026.69 1026.98 1027.25 1027.39 1027.37 1027.39 1027.50 1027.72 1027.82 1028.01 1028.27
1013.94 1014.28 1014.41 1014.21 1014.30 1014.46 1014.84 1014.82 1014.85 1015.52 1016.31 1017.41 1017.98 1018.38 1018.64 1019.09 1019.47 1019.87 1020.16 1020.63 1021.15 1021.80 1022.45 1022.97 1023.25 1024.11 1024.63 1025.00 1025.33 1025.54 1025.78 1025.95 1026.11 1026.19 1026.28 1026.35 1026.49 1026.68 1027.01 1027.32 1027.60 1027.71 1027.80 1027.89 1028.08 1028.35 1028.57 1028.95 1029.22
1014.83 1014.88 1014.84 1014.42 1014.50 1014.66 1015.10 1015.03 1015.22 1015.87 1016.64 1017.49 1018.00 1018.29 1018.52 1019.03 1019.44 1019.72 1019.98 1020.36 1020.84 1021.38 1022.17 1022.85 1023.37 1024.02 1024.61 1025.11 1025.45 1025.77 1026.02 1026.25 1026.41 1026.50 1026.59 1026.66 1026.81 1027.00 1027.26 1027.61 1027.91 1027.98 1028.25 1028.44 1028.37 1028.95 1029.02 1029.58 1029.87
1014.78 1015.01 1014.87 1014.71 1014.83 1015.13 1015.48 1015.25 1015.42 1016.05 1016.69 1017.38 1017.99 1018.27 1018.41 1018.57 1018.72 1019.26 1019.79 1020.26 1020.73 1021.27 1021.94 1022.65 1023.32 1024.00 1024.63 1025.23 1025.73 1026.17 1026.43 1026.65 1026.71 1026.81 1026.87 1026.93 1027.10 1027.27 1027.57 1027.89 1028.11 1028.29 1028.57 1028.88 1028.95 1029.21 1029.66 1029.93 1030.09
1014.44 1014.73 1014.82 1014.78 1015.06 1015.61 1015.77 1015.74 1015.39 1015.85 1016.57 1017.34 1017.99 1018.27 1018.17 1018.12 1018.36 1019.09 1019.70 1020.30 1020.94 1021.45 1021.98 1022.57 1023.31 1024.05 1024.71 1025.39 1025.96 1026.46 1026.75 1026.96 1027.05 1027.05 1027.03 1027.17 1027.33 1027.50 1027.77 1028.06 1028.37 1028.62 1028.82 1029.07 1029.23 1029.65 1030.06 1030.52 1030.51
1014.67 1015.02 1015.22 1015.39 1015.69 1016.17 1016.31 1015.85 1015.40 1015.66 1016.30 1017.03 1017.60 1018.09 1018.15 1018.40 1018.49 1018.95 1019.69 1020.32 1020.85 1021.36 1021.92 1022.59 1023.13 1023.81 1024.35 1024.76 1025.38 1025.88 1026.49 1027.02 1027.14 1027.25 1027.30 1027.39 1027.54 1027.73 1027.93 1028.18 1028.55 1028.80 1029.11 1029.35 1029.46 1029.61 1030.27 1030.62 1030.75
1015.12 1015.44 1015.69 1016.22 1016.69 1017.24 1017.37 1016.40 1015.69 1016.05 1016.60 1017.35 1017.68 1017.70 1017.79 1018.09 1018.60 1018.99 1019.52 1020.15 1020.80 1021.36 1021.78 1022.33 1022.95 1023.56 1024.16 1024.68 1025.34 1026.06 1026.49 1027.03 1027.34 1027.51 1027.59 1027.62 1027.70 1027.85 1028.02 1028.35 1028.68 1028.96 1029.11 1029.43 1029.60 1029.77 1030.03 1030.64 1030.99
1015.80 1015.89 1016.35 1017.27 1018.13 1018.98 1018.85 1018.09 1016.50 1016.61 1017.17 1017.96 1018.31 1018.35 1018.07 1018.13 1018.53 1018.99 1019.50 1020.09 1020.57 1021.14 1021.69 1022.25 1022.86 1023.47 1024.09 1024.54 1025.04 1025.55 1026.17 1026.88 1027.13 1027.31 1027.54 1027.72 1027.78 1027.96 1028.15 1028.45 1028.77 1029.02 1029.24 1029.49 1029.68 1029.80 1030.03 1030.34 1030.92
1016.55 1016.85 1017.81 1018.83 1019.72 1020.37 1020.06 1019.97 1017.04 1017.18 1017.90 1018.73 1019.04 1019.17 1018.91 1018.64 1018.86 1019.24 1019.67 1020.14 1020.72 1021.23 1021.71 1022.19 1022.85 1023.51 1024.02 1024.50 1024.91 1025.48 1026.23 1026.57 1026.95 1027.35 1027.67 1027.89 1028.05 1028.13 1028.30 1028.51 1028.74 1028.99 1029.26 1029.56 1029.76 1030.05 1030.24 1030.46 1030.77
1017.20 1018.02 1019.21 1020.40 1021.21 1021.91 1020.98 1020.63 1018.65 1018.39 1018.99 1019.45 1019.78 1019.91 1019.72 1019.38 1019.41 1019.69 1020.01 1020.42 1021.04 1021.58 1022.11 1022.54 1022.99 1023.52 1023.96 1024.46 1024.93 1025.37 1025.93 1026.48 1027.05 1027.47 1027.83 1028.09 1028.32 1028.40 1028.43 1028.55 1028.76 1028.96 1029.21 1029.45 1029.75 1030.02 1030.18 1030.44 1030.65
1017.94 1019.09 1020.90 1022.10 1022.82 1022.26 1021.59 1021.53 1018.82 1019.18 1019.61 1020.02 1020.45 1020.63 1020.43 1020.11 1020.02 1020.21 1020.42 1020.76 1021.20 1021.64 1022.13 1022.64 1023.11 1023.58 1023.93 1024.41 1024.86 1025.21 1025.62 1026.19 1026.65 1027.15 1027.58 1028.06 1028.34 1028.47 1028.56 1028.67 1028.92 1029.12 1029.27 1029.47 1029.68 1029.99 1030.28 1030.46 1030.70
1018.80 1019.44 1020.83 1021.97 1023.29 1022.67 1022.07 1020.93 1019.03 1019.64 1020.12 1020.48 1020.86 1021.04 1020.93 1020.77 1020.70 1020.75 1020.82 1021.07 1021.38 1021.70 1022.12 1022.58 1022.98 1023.43 1023.81 1024.25 1024.59 1024.97 1025.42 1025.86 1026.32 1026.73 1027.16 1027.49 1027.76 1027.95 1028.26 1028.61 1028.94 1029.17 1029.40 1029.67 1029.91 1030.19 1030.46 1030.66 1030.94
1019.54 1020.06 1020.56 1022.22 1023.95 1023.33 1021.58 1020.29 1019.90 1020.26 1020.75 1021.12 1021.45 1021.60 1021.77 1021.75 1021.65 1021.64 1021.55 1021.64 1021.79 1022.03 1022.29 1022.52 1022.84 1023.19 1023.57 1023.89 1024.36 1024.78 1025.17 1025.59 1025.97 1026.35 1026.67 1027.08 1027.37 1027.60 1028.02 1028.37 1028.77 1029.13 1029.43 1029.74 1030.13 1030.49 1030.76 1030.93 1031.18
1019.70 1020.38 1021.35 1022.48 1023.77 1023.61 1022.29 1021.45 1020.28 1020.93 1021.40 1021.82 1022.23 1022.53 1022.72 1022.73 1022.58 1022.50 1022.46 1022.34 1022.26 1022.33 1022.45 1022.68 1022.95 1023.20 1023.41 1023.78 1024.13 1024.40 1024.73 1025.15 1025.53 1025.99 1026.39 1026.72 1027.02 1027.33 1027.83 1028.27 1028.63 1029.00 1029.33 1029.66 1029.96 1030.43 1030.84 1031.24 1031.59
1020.91 1021.14 1022.03 1022.57 1023.40 1023.99 1023.72 1021.70 1020.93 1021.27 1021.82 1022.42 1022.94 1023.19 1023.33 1023.40 1023.37 1023.28 1023.18 1022.97 1022.78 1022.71 1022.79 1022.92 1023.02 1023.21 1023.38 1023.54 1023.94 1024.19 1024.42 1024.80 1025.24 1025.61 1025.95 1026.24 1026.67 1027.02 1027.40 1027.81 1028.28 1028.68 1029.08 1029.43 1029.86 1030.33 1030.77 1031.04 1031.51
1021.32 1021.60 1022.12 1023.24 1024.52 1025.16 1024.81 1022.61 1021.83 1022.38 1022.65 1023.01 1023.66 1023.84 1023.99 1024.08 1024.11 1024.06 1023.93 1023.71 1023.59 1023.56 1023.48 1023.44 1023.35 1023.31 1023.31 1023.44 1023.65 1023.82 1024.16 1024.59 1024.96 1025.26 1025.51 1025.89 1026.29 1026.65 1027.01 1027.52 1028.06 1028.46 1028.85 1029.27 1029.60 1029.81 1030.28 1030.95 1031.44
Thickness
5707 5708 5707 5699 5676 5666 5667 5678 5679 5683 5684 5679 5680 5680 5676 5661 5672 5662 5661 5663 5666 5665 5664 5663 5664 5663 5663 5664 5664 5664 5662 5661 5662 5664 5664 5665 5666 5667 5668 5668 5669 5670 5671 5671 5673 5674 5675 5676 5675
5704 5704 5700 5681 5661 5654 5661 5678 5681 5685 5677 5671 5673 5671 5667 5659 5660 5659 5659 5661 5663 5662 5661 5660 5660 5660 5659 5660 5660 5659 5658 5658 5658 5659 5660 5662 5663 5663 5664 5666 5667 5667 5667 5668 5670 5671 5673 5672 5672
5704 5702 5686 5666 5647 5655 5662 5682 5683 5680 5673 5680 5670 5664 5664 5659 5656 5659 5661 5659 5659 5659 5658 5657 5657 5656 5657 5656 5655 5654 5654 5653 5653 5655 5656 5657 5659 5659 5660 5662 5663 5663 5663 5665 5666 5668 5669 5669 5669
5697 5688 5674 5661 5664 5675 5679 5682 5682 5677 5679 5678 5672 5662 5659 5659 5657 5660 5659 5657 5656 5656 5654 5653 5653 5652 5652 5651 5650 5650 5650 5649 5649 5651 5652 5653 5653 5654 5655 5657 5658 5659 5659 5661 5662 5664 5665 5665 5664
5689 5675 5654 5653 5663 5674 5678 5680 5676 5678 5678 5675 5675 5658 5654 5657 5657 5656 5654 5654 5652 5651 5651 5650 5649 5648 5647 5646 5645 5645 5644 5645 5646 5646 5647 5648 5648 5649 5650 5651 5653 5655 5656 5657 5657 5659 5659 5659 5659
5673 5666 5647 5648 5658 5673 5677 5676 5674 5675 5672 5666 5663 5657 5652 5650 5652 5650 5651 5650 5650 5648 5647 5645 5645 5644 5642 5641 5640 5639 5638 5639 5640 5640 5641 5642 5643 5645 5646 5646 5648 5650 5651 5651 5652 5652 5652 5651 5650
5669 5654 5650 5653 5658 5668 5674 5668 5667 5666 5663 5665 5661 5653 5646 5645 5646 5646 5645 5645 5644 5644 5642 5640 5639 5638 5638 5635 5633 5632 5632 5632 5632 5633 5634 5636 5638 5640 5641 5642 5643 5644 5645 5645 5645 5645 5644 5644 5644
5662 5656 5651 5652 5651 5662 5669 5670 5666 5668 5661 5655 5657 5650 5645 5646 5641 5640 5638 5637 5637 5636 5636 5634 5632 5631 5631 5627 5625 5625 5625 5625 5625 5625 5626 5627 5630 5632 5634 5636 5637 5637 5637 5637 5637 5636 5637 5636 5637
5667 5645 5639 5656 5650 5665 5667 5665 5663 5659 5653 5651 5650 5652 5653 5647 5638 5635 5630 5628 5628 5627 5627 5627 5626 5624 5622 5619 5618 5618 5618 5617 5617 5618 5619 5621 5624 5626 5628 5629 5629 5629 5629 5628 5627 5627 5627 5628 5629
5654 5638 5648 5661 5662 5662 5664 5665 5657 5657 5650 5647 5645 5638 5643 5639 5635 5631 5626 5621 5620 5619 5618 5618 5618 5616 5614 5612 5611 5611 5611 5610 5610 5611 5612 5614 5616 5618 5619 5620 5620 5620 5620 5619 5619 5619 5620 5621 5621
5652 5645 5655 5660 5661 5660 5660 5657 5657 5650 5647 5651 5648 5632 5635 5633 5628 5625 5621 5620 5617 5613 5612 5611 5610 5608 5607 5605 5604 5604 5604 5604 5604 5605 5606 5607 5609 5610 5611 5611 5610 5610 5609 5609 5610 5611 5612 5612 5612
5655 5657 5655 5657 5655 5655 5653 5653 5652 5646 5654 5652 5651 5640 5636 5631 5626 5622 5616 5612 5609 5607 5606 5604 5603 5601 5600 5599 5597 5597 5597 5597 5598 5598 5599 5600 5601 5601 5601 5601 5600 5600 5600 5600 5601 5602 5602 5602 5602
5652 5654 5654 5651 5651 5650 5648 5647 5647 5646 5647 5641 5637 5633 5632 5628 5621 5615 5612 5607 5603 5601 5600 5598 5596 5594 5593 5592 5591 5591 5591 5591 5592 5592 5593 5593 5593 5592 5593 5592 5592 5592 5592 5592 5592 5593 5593 5592 5592
5651 5650 5648 5645 5645 5645 5644 5643 5644 5644 5636 5631 5630 5627 5625 5623 5618 5611 5607 5603 5600 5597 5595 5592 5590 5588 5586 5585 5584 5584 5584 5585 5585 5585 5585 5585 5586 5585 5585 5584 5583 5583 5584 5584 5584 5583 5583 5582 5581
5645 5643 5641 5641 5641 5641 5639 5637 5637 5640 5633 5626 5624 5622 5620 5616 5612 5615 5612 5605 5601 5596 5591 5588 5585 5582 5580 5579 5578 5577 5577 5577 5578 5578 5578 5578 5578 5578 5578 5576 5575 5575 5575 5575 5575 5574 5573 5572 5570
5634 5629 5625 5635 5634 5636 5636 5632 5644 5630 5628 5623 5619 5619 5618 5614 5612 5609 5607 5604 5599 5593 5589 5585 5582 5577 5574 5573 5571 5571 5570 5570 5570 5571 5571 5571 5571 5571 5570 5569 5567 5567 5566 5567 5567 5565 5563 5561 5559
5614 5617 5617 5632 5629 5632 5631 5635 5637 5625 5624 5622 5615 5615 5617 5612 5609 5606 5604 5602 5598 5594 5587 5581 5578 5574 5570 5567 5566 5564 5563 5563 5563 5563 5563 5563 5563 5563 5563 5561 5560 5559 5558 5557 5558 5555 5555 5551 5549
5614 5613 5616 5624 5627 5624 5623 5622 5630 5627 5621 5620 5612 5610 5612 5613 5614 5608 5603 5599 5596 5591 5586 5580 5574 5570 5566 5562 5559 5557 5556 5555 5555 5556 5556 5556 5556 5556 5555 5554 5552 5551 5550 5549 5548 5547 5544 5542 5541
5615 5617 5621 5623 5619 5619 5616 5614 5624 5627 5618 5613 5607 5605 5608 5612 5613 5606 5601 5596 5591 5586 5582 5577 5571 5565 5561 5556 5553 5550 5549 5548 5548 5548 5549 5549 5549 5549 5548 5547 5545 5543 5542 5541 5540 5537 5535 5531 5531
5613 5612 5610 5612 5611 5611 5609 5616 5619 5626 5625 5618 5612 5605 5605 5605 5606 5601 5596 5590 5587 5583 5579 5573 5569 5563 5560 5557 5553 5550 5546 5542 5542 5541 5541 5541 5541 5541 5540 5539 5537 5535 5534 5532 5531 5530 5525 5523 5522
5605 5600 5605 5605 5600 5594 5596 5610 5624 5618 5616 5602 5597 5604 5607 5603 5598 5595 5590 5586 5580 5576 5573 5570 5565 5560 5556 5552 5548 5543 5540 5537 5534 5534 5534 5534 5533 5532 5532 5530 5529 5527 5526 5524 5522 5522 5520 5515 5513
5601 5599 5601 5595 5578 5570 5576 5576 5615 5610 5610 5591 5582 5585 5595 5597 5593 5588 5583 5578 5575 5571 5567 5563 5559 5554 5550 5547 5543 5540 5536 5531 5530 5529 5528 5526 5525 5524 5524 5522 5520 5519 5517 5515 5514 5513 5511 5510 5506
5591 5582 5579 5571 5543 5553 5575 5532 5601 5601 5607 5585 5574 5573 5575 5587 5583 5578 5574 5572 5566 5562 5559 5555 5551 5546 5543 5540 5538 5533 5529 5526 5524 5522 5519 5517 5516 5516 5515 5514 5512 5511 5509 5507 5505 5503 5502 5501 5498
5565 5568 5551 5532 5530 5499 5527 5540 5583 5594 5580 5569 5563 5560 5561 5570 5568 5566 5563 5560 5554 5551 5547 5545 5542 5538 5535 5532 5529 5526 5522 5518 5515 5512 5509 5507 5507 5506 5506 5505 5504 5503 5501 5499 5498 5496 5494 5492 5491
5564 5558 5520 5518 5492 5531 5529 5519 5570 5565 5554 5555 5555 5549 5549 5552 5555 5555 5554 5550 5546 5543 5539 5536 5533 5529 5527 5524 5521 5518 5514 5511 5508 5505 5501 5498 5497 5496 5496 5496 5494 5493 5491 5490 5489 5487 5485 5483 5481
5555 5546 5527 5529 5524 5552 5523 5529 5563 5547 5539 5540 5540 5541 5541 5541 5541 5542 5543 5539 5537 5534 5530 5527 5524 5521 5518 5515 5512 5510 5506 5503 5500 5497 5494 5492 5491 5490 5489 5486 5483 5481 5479 5478 5477 5476 5474 5472 5470
5545 5537 5533 5482 5468 5478 5532 5542 5538 5533 5532 5528 5527 5527 5524 5525 5525 5526 5527 5526 5525 5522 5520 5517 5515 5513 5509 5506 5503 5500 5497 5494 5491 5488 5486 5484 5482 5480 5478 5476 5473 5470 5468 5466 5464 5463 5461 5460 5458
5529 5523 5524 5483 5488 5503 5523 5527 5536 5522 5522 5521 5514 5507 5505 5505 5506 5508 5508 5509 5510 5510 5508 5505 5503 5501 5499 5496 5493 5492 5489 5485 5482 5478 5475 5473 5471 5469 5467 5464 5461 5459 5456 5454 5453 5451 5448 5445 5443
5508 5492 5497 5501 5484 5479 5471 5517 5508 5516 5508 5503 5496 5492 5489 5489 5489 5490 5491 5493 5494 5495 5494 5493 5491 5489 5487 5486 5483 5481 5478 5475 5472 5469 5465 5462 5460 5458 5455 5453 5450 5447 5445 5443 5440 5437 5435 5433 5429
5495 5502 5501 5500 5480 5428 5437 5490 5486 5472 5469 5470 5474 5477 5476 5476 5474 5474 5474 5475 5477 5477 5477 5477 5477 5477 5475 5474 5472 5470 5467 5463 5460 5457 5454 5450 5447 5445 5442 5439 5436 5433 5432 5430 5427 5426 5423 5419 5417